Zapata, TX

2:40 AM CDT on June 25, 2017 (GMT -0500)
Zapata

Weather History for KAPY - December, 2012

Change the Weather History Date:

Thursday, December 6, 2012

  Actual Average (KLRD) Record (KLRD)
Temperature  
Mean Temperature 63 °F -  
Max Temperature 80 °F 67 °F 95 °F (1951)
Min Temperature 46 °F 48 °F 29 °F (1950)
Degree Days  
Heating Degree Days 2    
Growing Degree Days 13 (Base 50)    
Moisture  
Dew Point 52 °F    
Average Humidity 69    
Maximum Humidity 100    
Minimum Humidity 41    
Precipitation  
Precipitation 0.00 in - - ()
Sea Level Pressure  
Sea Level Pressure 29.92 in    
Wind  
Wind Speed 3 mph (SE)    
Max Wind Speed 13 mph    
Max Gust Speed 17 mph    
Visibility 9 miles    
Events Fog    
Averages and records for this station are not official NWS values.
T = Trace of Precipitation, MM = Missing Value Source: NWS Daily Summary

Daily Weather History Graph

Daily Weather History Graph

Search for Another Location

Airport or City:

Trip Planner

Search our weather history database for the weather conditions in past years. The results will help you decide how hot, cold, wet, or windy it might be!

Date:

Astronomy

Dec. 06, 2012 Rise Set
Actual Time 7:12 AM CST 5:43 PM CST
Civil Twilight 6:47 AM CST 6:08 PM CST
Nautical Twilight 6:18 AM CST 6:37 PM CST
Astronomical Twilight 5:50 AM CST 7:06 PM CST
Moon 12:07 AM CST (12/6) 12:37 PM CST (12/6)
Length of Visible Light 11h 21m
Length of Day
10h 30m
Waning Gibbous, 49% of the Moon is Illuminated
Dec 6
Waning Gibbous
Dec 13
New
Dec 19
First Quarter
Dec 28
Full
Jan 4
Last Quarter

Hourly Weather History & Observations

Time (CST) Temp. Heat Index Dew Point Humidity Pressure Visibility Wind Dir Wind Speed Gust Speed Precip Events Conditions
12:15 AM 48.9 °F - 41.5 °F 76% 30.03 in 10.0 mi Calm Calm - N/A   Clear
12:35 AM 50.0 °F - 41.0 °F 71% 30.03 in 10.0 mi East 3.5 mph - N/A   Clear
12:55 AM 51.3 °F - 39.7 °F 65% 30.02 in 10.0 mi ENE 3.5 mph - N/A   Clear
1:15 AM 48.7 °F - 39.7 °F 71% 30.02 in 10.0 mi Calm Calm - N/A   Clear
1:35 AM 46.4 °F - 40.8 °F 81% 30.01 in 10.0 mi Calm Calm - N/A   Clear
1:55 AM 46.4 °F - 40.5 °F 80% 30.00 in 10.0 mi Calm Calm - N/A   Clear
2:15 AM 47.5 °F - 41.5 °F 80% 29.99 in 10.0 mi Calm Calm - N/A   Clear
2:35 AM 48.2 °F - 42.3 °F 80% 29.99 in 10.0 mi Calm Calm - N/A   Clear
2:55 AM 46.0 °F - 41.4 °F 84% 29.98 in 10.0 mi Calm Calm - N/A   Clear
3:15 AM 46.6 °F - 41.9 °F 84% 29.98 in 10.0 mi Calm Calm - N/A   Clear
3:35 AM 49.1 °F - 44.8 °F 85% 29.97 in 10.0 mi Calm Calm - N/A   Clear
3:55 AM 46.9 °F - 43.2 °F 87% 29.97 in 10.0 mi Calm Calm - N/A   Clear
4:15 AM 46.9 °F - 43.3 °F 87% 29.97 in 10.0 mi Calm Calm - N/A   Clear
4:35 AM 46.0 °F - 42.6 °F 88% 29.96 in 10.0 mi Calm Calm - N/A   Clear
4:55 AM 47.8 °F - 44.4 °F 88% 29.97 in 10.0 mi Calm Calm - N/A   Clear
5:15 AM 46.9 °F - 44.6 °F 92% 29.96 in 10.0 mi Calm Calm - N/A   Clear
5:35 AM 49.5 °F - 47.7 °F 94% 29.96 in 10.0 mi ESE 3.5 mph - N/A   Clear
5:55 AM 46.9 °F - 45.0 °F 93% 29.96 in 7.0 mi Calm Calm - N/A   Clear
6:15 AM 47.1 °F - 46.0 °F 96% 29.97 in 10.0 mi Calm Calm - N/A   Clear
6:35 AM 51.3 °F - 50.7 °F 98% 29.97 in 7.0 mi Calm Calm - N/A   Scattered Clouds
6:55 AM 49.3 °F - 48.7 °F 98% 29.97 in 0.2 mi Calm Calm - N/A Fog Fog
7:15 AM 46.4 °F - 46.2 °F 99% 29.97 in 0.2 mi Calm Calm - N/A Fog Fog
7:35 AM 47.5 °F - 47.5 °F 100% 29.97 in 0.5 mi Calm Calm - N/A Fog Fog
7:55 AM 49.8 °F - 49.8 °F 100% 29.98 in 2.5 mi Calm Calm - N/A   Clear
8:15 AM 56.1 °F - 55.9 °F 99% 29.99 in 5.0 mi Calm Calm - N/A   Clear
8:35 AM 59.4 °F - 55.4 °F 87% 29.98 in 10.0 mi SE 4.6 mph - N/A   Clear
8:55 AM 61.7 °F - 55.6 °F 80% 29.99 in 10.0 mi SE 3.5 mph - N/A   Clear
9:15 AM 64.0 °F - 55.9 °F 75% 29.99 in 10.0 mi SE 5.8 mph - N/A   Clear
9:35 AM 66.7 °F - 56.5 °F 70% 29.99 in 10.0 mi SSE 5.8 mph - N/A   Clear
9:55 AM 69.1 °F - 57.2 °F 66% 29.99 in 10.0 mi SE 9.2 mph - N/A   Clear
10:15 AM 69.4 °F - 58.5 °F 68% 29.98 in 10.0 mi SE 8.1 mph - N/A   Clear
10:35 AM 71.8 °F - 57.2 °F 60% 29.97 in 10.0 mi SE 8.1 mph 16.1 mph N/A   Clear
10:55 AM 72.3 °F - 57.2 °F 59% 29.97 in 10.0 mi SSE 9.2 mph - N/A   Clear
11:15 AM 73.8 °F - 58.3 °F 58% 29.95 in 10.0 mi SE 10.4 mph - N/A   Clear
11:35 AM 75.6 °F - 57.2 °F 53% 29.94 in 10.0 mi SSE 9.2 mph - N/A   Clear
11:55 AM 76.3 °F - 55.2 °F 48% 29.94 in 10.0 mi SSE 10.4 mph 16.1 mph N/A   Clear
12:15 PM 76.6 °F - 54.7 °F 46% 29.92 in 10.0 mi South 12.7 mph 17.3 mph N/A   Clear
12:35 PM 76.6 °F - 55.8 °F 48% 29.91 in 10.0 mi SSE 8.1 mph 17.3 mph N/A   Clear
12:55 PM 78.1 °F - 54.9 °F 45% 29.90 in 10.0 mi SSE 9.2 mph - N/A   Clear
1:15 PM 78.3 °F - 55.0 °F 45% 29.89 in 10.0 mi SSE 8.1 mph - N/A   Clear
1:35 PM 79.0 °F - 54.7 °F 43% 29.87 in 10.0 mi SSE 9.2 mph - N/A   Clear
1:55 PM 79.3 °F - 54.7 °F 42% 29.86 in 10.0 mi SE 10.4 mph - N/A   Clear
2:15 PM 80.1 °F 80.1 °F 55.2 °F 42% 29.85 in 10.0 mi South 9.2 mph - N/A   Clear
2:35 PM 80.6 °F 80.4 °F 55.0 °F 41% 29.83 in 10.0 mi ESE 11.5 mph 16.1 mph N/A   Clear
2:55 PM 80.6 °F 80.4 °F 54.9 °F 41% 29.83 in 10.0 mi SE 6.9 mph - N/A   Clear
3:15 PM 80.6 °F 80.4 °F 54.9 °F 41% 29.82 in 10.0 mi SSE 10.4 mph 17.3 mph N/A   Clear
3:35 PM 80.8 °F 80.6 °F 55.2 °F 41% 29.82 in 10.0 mi SSE 12.7 mph 16.1 mph N/A   Clear
3:55 PM 80.8 °F 80.7 °F 55.4 °F 42% 29.82 in 10.0 mi SSE 9.2 mph 16.1 mph N/A   Clear
4:15 PM 80.4 °F 80.4 °F 55.6 °F 42% 29.81 in 10.0 mi SE 6.9 mph - N/A   Clear
4:55 PM 78.8 °F - 57.4 °F 48% 29.82 in 10.0 mi SE 9.2 mph - N/A   Clear
5:15 PM 77.9 °F - 57.2 °F 49% 29.82 in 10.0 mi SE 8.1 mph - N/A   Clear
6:15 PM 72.1 °F - 56.8 °F 58% 29.82 in 10.0 mi ESE 4.6 mph - N/A   Clear
6:35 PM 70.2 °F - 56.7 °F 62% 29.82 in 10.0 mi ESE 4.6 mph - N/A   Clear
6:55 PM 70.2 °F - 56.5 °F 62% 29.82 in 10.0 mi ESE 4.6 mph - N/A   Clear
7:15 PM 70.2 °F - 56.8 °F 63% 29.82 in 10.0 mi ESE 6.9 mph - N/A   Clear
7:35 PM 70.5 °F - 57.2 °F 63% 29.83 in 10.0 mi ESE 8.1 mph - N/A   Clear
7:55 PM 69.8 °F - 57.4 °F 65% 29.83 in 10.0 mi ESE 6.9 mph - N/A   Clear
9:15 PM 66.9 °F - 59.0 °F 76% 29.85 in 10.0 mi SE 4.6 mph - N/A   Clear
9:35 PM 69.8 °F - 59.4 °F 69% 29.84 in 10.0 mi SE 8.1 mph - N/A   Clear
9:55 PM 69.8 °F - 58.5 °F 67% 29.84 in 10.0 mi SE 8.1 mph - N/A   Clear
10:15 PM 69.3 °F - 58.1 °F 68% 29.84 in 10.0 mi SE 8.1 mph - N/A   Clear
10:35 PM 68.4 °F - 58.3 °F 70% 29.84 in 10.0 mi SE 6.9 mph - N/A   Clear
10:55 PM 67.8 °F - 58.5 °F 72% 29.84 in 10.0 mi SE 5.8 mph - N/A   Clear
11:55 PM 65.5 °F - 59.4 °F 81% 29.83 in 10.0 mi SE 5.8 mph - N/A   Clear